[[{"header":{"parameterUnit":"m.s-1","parameterCategory":1,"la1":30.2991,"la2":30.254,"lo1":-89.0895,"lo2":-89.0444,"dy":0.0017,"dx":0.0017,"nx":28,"ny":28,"refTime":"2025-09-09T09:00:00:Z","depth":0,"parameterNumber":2,"parameterNumberName":"U-component_of_WINDS"},"data":[0,0,0,0,0,0,0,0,0,0,0,0,0,0,0,0,0,0,0,0,0,0,0,0,0,0,0,0,0,0,0,0,0,0,0,0,0,0,0,0,0,0,0,0,0,0,0,0,0,0,0,0,0,0,0,0,0,0,-4.4226,-4.4227,0,-4.4242,-4.4242,-4.4242,-4.4133,-4.413,-4.4127,-4.4124,-4.4141,-4.4144,-4.4148,0,0,0,0,0,0,0,0,0,0,0,0,0,-4.4104,-4.4107,-4.4226,-4.4227,-4.4227,-4.4242,-4.4242,-4.4242,-4.4133,-4.413,-4.4126,-4.4122,-4.414,-4.4144,-4.4148,0,0,0,0,0,0,0,0,0,0,0,0,0,-4.4142,-4.4108,-4.4226,-4.4174,-4.417,-4.4242,-4.4242,-4.4242,-4.4134,-4.413,-4.4125,-4.4121,-4.4139,-4.4144,-4.4149,-4.4272,0,0,-4.4164,-4.4166,0,0,0,0,0,0,0,0,-4.414,-4.4147,-4.4182,-4.4178,-4.4173,-4.4181,-4.4205,-4.4252,-4.4135,-4.4148,-4.4124,-4.4118,-4.4158,-4.4161,-4.4174,-4.4273,-4.4273,-4.4164,-4.4167,-4.4169,-4.4171,0,0,0,0,0,0,0,-4.4138,-4.4146,-4.4232,-4.4182,-4.4177,-4.4151,-4.4151,-4.4214,-4.4179,-4.4146,-4.4138,-4.4142,-4.4155,-4.417,-4.4174,-4.4274,-4.4164,-4.4169,-4.4172,-4.4174,-4.4474,-4.4479,0,0,0,0,0,0,-4.4142,-4.4144,-4.4232,-4.4233,-4.4145,-4.4157,-4.4157,-4.4183,-4.4178,-4.4172,-4.4146,-4.4137,-4.4164,-4.4168,-4.4174,-4.4319,-4.4169,-4.4174,-4.4177,-4.4469,-4.4475,-4.4481,0,0,0,0,0,0,-4.414,-4.4151,-4.4231,-4.4186,-4.4195,-4.4164,-4.4194,-4.4186,-4.42,-4.4177,-4.417,-4.4167,-4.416,-4.4167,-4.4248,-4.4318,-4.4176,-4.4181,-4.4463,-4.4471,-4.4478,-4.4608,0,0,0,0,0,0,-4.4137,-4.4151,-4.4197,-4.4188,-4.4197,-4.4305,-4.4198,-4.4189,-4.4209,-4.4197,-4.4196,-4.4191,-4.4157,-4.4241,-4.4253,-4.4322,-4.4185,-4.4457,-4.4467,-4.4476,-4.4598,-4.4619,-4.4638,0,0,0,0,0,-4.4133,-4.4233,-4.42,-4.4211,-4.4254,-4.4309,-4.4315,-4.4273,-4.4215,-4.4261,-4.4247,-4.4191,-4.4308,-4.4251,-4.4263,-4.4334,-4.4453,-4.4464,-4.4475,-4.4589,-4.4615,-4.4637,0,0,0,0,0,0,-4.4251,-4.4231,-4.4194,-4.4294,-4.4304,-4.4291,-4.4348,-4.4302,-4.433,-4.4318,-4.4265,-4.4266,-4.4356,-4.4353,-4.429,-4.4454,-4.437,-4.4385,-4.4452,-4.4477,-4.4497,-4.4496,-4.4189,0,0,0,0,0,-4.4289,-4.4335,-4.4315,-4.4405,-4.4412,-4.438,-4.4402,-4.4369,-4.4378,-4.4382,-4.4372,-4.4384,-4.4422,-4.445,-4.4484,-4.4596,-4.4595,-4.4652,-4.4672,-4.4688,-4.4702,-4.4762,-4.4787,-4.4518,-4.4518,-4.4517,0,0,-4.4367,-4.4362,-4.4394,-4.4429,-4.4433,-4.4482,-4.4384,-4.444,-4.4476,-4.439,-4.4466,-4.446,-4.4469,-4.4567,-4.4609,-4.4567,-4.4775,-4.4703,-4.4716,-4.472,-4.4776,-4.4801,-4.4824,-4.4525,-4.4524,-4.4523,0,0,-4.4536,-4.4536,-4.4612,-4.4618,-4.4625,-4.4602,-4.4621,-4.4614,-4.4607,-4.4683,-4.4619,-4.4662,-4.473,-4.4739,-4.4753,-4.4925,-4.4876,-4.4938,-4.5043,-4.5103,-4.5124,-4.5142,-4.5205,-4.5228,-4.4951,-4.4952,-4.4952,0,-4.4632,-4.4704,-4.4657,-4.4717,-4.4735,-4.4659,-4.4735,-4.4744,-4.4762,-4.4776,-4.4728,-4.4813,-4.4813,-4.4913,-4.4955,-4.4968,-4.4988,-4.4938,-4.5124,-4.5143,-4.5159,-4.5218,-4.5242,-4.4959,-4.4958,-4.4957,-4.4957,0,-4.4823,-4.4874,-4.4934,-4.4954,-4.4978,-4.5046,-4.501,-4.504,-4.5006,-4.4989,-4.5067,-4.5065,-4.5098,-4.5119,-4.5086,-4.5214,-4.5188,-4.5133,-4.5048,-4.5193,-4.5248,-4.527,-4.497,-4.4967,-4.4965,-4.4963,0,0,-4.5067,-4.5059,-4.5083,-4.5091,-4.5093,-4.5132,-4.5197,-4.5229,-4.5257,-4.5272,-4.5326,-4.5386,-4.5335,-4.5351,-4.5318,-4.537,-4.5508,-4.5309,-4.5308,-4.5347,-4.565,-4.5692,-4.5719,-4.5474,-4.5479,-4.5482,-4.565,0,-4.5232,-4.5343,-4.5302,-4.5416,-4.5463,-4.5391,-4.5448,-4.5456,-4.5442,-4.548,-4.5464,-4.5508,-4.5438,-4.5447,-4.5495,-4.5481,-4.5568,-4.5468,-4.5525,-4.5528,-4.5526,-4.5747,-4.5792,-4.595,-4.5671,-4.5674,-4.5677,0,-4.5439,-4.5463,-4.5582,-4.5577,-4.5595,-4.5647,-4.5673,-4.571,-4.5718,-4.5704,-4.5722,-4.5678,-4.5742,-4.5657,-4.5746,-4.5679,-4.57,-4.5697,-4.5702,-4.5706,-4.5612,-4.5759,-4.6,-4.6024,-4.571,-4.5707,-4.5705,0,-4.5607,-4.5668,-4.5747,-4.5756,-4.5752,-4.579,-4.5791,-4.5794,-4.5816,-4.5839,-4.5853,-4.5884,-4.5901,-4.5927,-4.5892,-4.5833,-4.5987,-4.5898,-4.5978,-4.5979,-4.6014,-4.6013,-4.6263,-4.6027,-4.6026,-4.6026,-4.6025,0,-4.5796,-4.5872,-4.5822,-4.5871,-4.5954,-4.5907,-4.599,-4.5983,-4.5986,-4.6033,-4.5972,-4.6018,-4.5969,-4.601,-4.5984,-4.6062,-4.607,-4.6061,-4.6053,-4.6067,-4.6068,-4.6081,-4.6069,-4.6032,-4.6031,-4.6029,-4.6028,0,-4.5997,-4.5967,-4.6049,-4.6038,-4.6037,-4.6099,-4.609,-4.6135,-4.6116,-4.6176,-4.6187,-4.6159,-4.6204,-4.6172,-4.6217,-4.6199,-4.6302,-4.6278,-4.63,-4.6293,-4.6375,-4.6368,-4.6643,-4.6677,-4.6418,-4.6421,-4.6423,0,-4.612,-4.6177,-4.6172,-4.6199,-4.6203,-4.6246,-4.6269,-4.6225,-4.625,-4.6264,-4.6308,-4.6348,-4.6377,-4.6452,-4.6436,-4.6471,-4.6448,-4.6542,-4.6453,-4.6465,-4.6451,-4.6448,-4.6454,-4.656,-4.6563,-4.6566,-4.6568,0,-4.6343,-4.6325,-4.6359,-4.6389,-4.6417,-4.6438,-4.6454,-4.648,-4.6435,-4.6468,-4.6512,-4.6535,-4.6581,-4.6622,-4.665,-4.665,-4.6603,-4.6596,-4.6616,-4.6631,-4.6642,-4.6638,-4.635,-4.659,-4.6588,-4.6586,-4.6585,-4.6584,-4.6509,-4.6556,-4.6561,-4.6601,-4.6608,-4.6625,-4.6667,-4.6654,-4.6691,-4.6724,-4.6696,-4.6751,-4.6757,-4.679,-4.6797,-4.6839,-4.6801,-4.683,-4.6838,-4.6846,-4.6858,-4.6634,-4.6844,-4.6843,-4.6843,-4.6842,-4.6842,0,-4.6729,-4.6728,-4.6766,-4.6791,-4.6823,-4.6774,-4.6789,-4.682,-4.6868,-4.6878,-4.6908,-4.6961,-4.7,-4.6987,-4.7022,-4.7058,-4.7038,-4.7069,-4.7067,-4.7068,-4.689,-4.6869,-4.7086,-4.7086,-4.7086,-4.7086,-4.7086,-4.7086,-4.6847,-4.6925,-4.6908,-4.6989,-4.6987,-4.704,-4.7053,-4.7069,-4.7077,-4.7138,-4.717,-4.7161,-4.7162,-4.7197,-4.7231,-4.7226,-4.7242,-4.7282,-4.727,-4.7104,-4.708,-4.7057,-4.7038,-4.7286,-4.7286,-4.7444,-4.7446,-4.7447]},{"header":{"parameterUnit":"m.s-1","parameterCategory":1,"la1":30.2991,"la2":30.254,"lo1":-89.0895,"lo2":-89.0444,"dy":0.0017,"dx":0.0017,"nx":28,"ny":28,"refTime":"2025-09-09T09:00:00:Z","depth":0,"parameterNumber":3,"parameterNumberName":"V-component_of_WINDS"},"data":[0,0,0,0,0,0,0,0,0,0,0,0,0,0,0,0,0,0,0,0,0,0,0,0,0,0,0,0,0,0,0,0,0,0,0,0,0,0,0,0,0,0,0,0,0,0,0,0,0,0,0,0,0,0,0,0,0,0,-1.2329,-1.2329,0,-1.2328,-1.2328,-1.2328,-1.2297,-1.2296,-1.2295,-1.2294,-1.2294,-1.2295,-1.2296,0,0,0,0,0,0,0,0,0,0,0,0,0,-1.2303,-1.2304,-1.2329,-1.2329,-1.2329,-1.2328,-1.2328,-1.2328,-1.2297,-1.2296,-1.2295,-1.2294,-1.2294,-1.2295,-1.2296,0,0,0,0,0,0,0,0,0,0,0,0,0,-1.231,-1.2304,-1.2329,-1.2313,-1.2312,-1.2328,-1.2328,-1.2328,-1.2297,-1.2296,-1.2294,-1.2293,-1.2294,-1.2295,-1.2296,-1.2327,0,0,-1.2299,-1.23,0,0,0,0,0,0,0,0,-1.2309,-1.2311,-1.2315,-1.2314,-1.2313,-1.2311,-1.2319,-1.2328,-1.2297,-1.2303,-1.2294,-1.2293,-1.2301,-1.2301,-1.2304,-1.2327,-1.2327,-1.2299,-1.23,-1.2301,-1.2301,0,0,0,0,0,0,0,-1.2309,-1.231,-1.2328,-1.2315,-1.2314,-1.2306,-1.2306,-1.232,-1.2309,-1.2302,-1.23,-1.23,-1.23,-1.2303,-1.2304,-1.2327,-1.2299,-1.23,-1.2301,-1.2302,-1.2376,-1.2377,0,0,0,0,0,0,-1.2311,-1.231,-1.2328,-1.2328,-1.2308,-1.2307,-1.2307,-1.2313,-1.2308,-1.2306,-1.2301,-1.2298,-1.2301,-1.2302,-1.2303,-1.2339,-1.2301,-1.2302,-1.2302,-1.2374,-1.2376,-1.2377,0,0,0,0,0,0,-1.231,-1.2313,-1.2328,-1.2319,-1.232,-1.2309,-1.2316,-1.2313,-1.2316,-1.2308,-1.2305,-1.2306,-1.2301,-1.2302,-1.2321,-1.2339,-1.2302,-1.2303,-1.2373,-1.2375,-1.2377,-1.2412,0,0,0,0,0,0,-1.231,-1.2313,-1.2324,-1.2319,-1.2321,-1.2346,-1.2317,-1.2314,-1.2318,-1.2315,-1.2312,-1.231,-1.23,-1.232,-1.2323,-1.234,-1.2304,-1.2371,-1.2374,-1.2376,-1.2409,-1.2415,-1.242,0,0,0,0,0,-1.2309,-1.2335,-1.2325,-1.2328,-1.2335,-1.2348,-1.2348,-1.2336,-1.232,-1.2332,-1.2326,-1.231,-1.2337,-1.2322,-1.2325,-1.2343,-1.237,-1.2373,-1.2376,-1.2407,-1.2414,-1.242,0,0,0,0,0,0,-1.2343,-1.2334,-1.2323,-1.2348,-1.2349,-1.2342,-1.2357,-1.2343,-1.2349,-1.2346,-1.233,-1.2329,-1.2351,-1.2349,-1.2333,-1.2373,-1.2351,-1.2354,-1.2373,-1.238,-1.2385,-1.2385,-1.2305,0,0,0,0,0,-1.2353,-1.2364,-1.2355,-1.2378,-1.2379,-1.2368,-1.2373,-1.2363,-1.2363,-1.2363,-1.2359,-1.236,-1.2368,-1.2374,-1.2381,-1.2409,-1.2408,-1.2423,-1.2428,-1.2432,-1.2436,-1.245,-1.2456,-1.2387,-1.2387,-1.2387,0,0,-1.2375,-1.2371,-1.2379,-1.2385,-1.2384,-1.2395,-1.2368,-1.2382,-1.239,-1.2365,-1.2383,-1.238,-1.238,-1.2403,-1.2414,-1.2402,-1.2454,-1.2436,-1.244,-1.2441,-1.2453,-1.246,-1.2466,-1.2389,-1.2389,-1.2388,0,0,-1.242,-1.2419,-1.2437,-1.2437,-1.2436,-1.2428,-1.2433,-1.2428,-1.2425,-1.2442,-1.2424,-1.2433,-1.2448,-1.2449,-1.2451,-1.2495,-1.2481,-1.2498,-1.2526,-1.254,-1.2545,-1.255,-1.2565,-1.2571,-1.2501,-1.2502,-1.2502,0,-1.2448,-1.2463,-1.2449,-1.2463,-1.2466,-1.2443,-1.2462,-1.2462,-1.2464,-1.2467,-1.2454,-1.2472,-1.247,-1.2493,-1.2504,-1.2507,-1.2511,-1.2499,-1.2546,-1.255,-1.2554,-1.2569,-1.2575,-1.2504,-1.2503,-1.2503,-1.2503,0,-1.2497,-1.2508,-1.2523,-1.2525,-1.2529,-1.2546,-1.2533,-1.254,-1.2529,-1.2523,-1.2541,-1.2538,-1.2544,-1.2549,-1.2539,-1.257,-1.2563,-1.2548,-1.2526,-1.2563,-1.2577,-1.2582,-1.2507,-1.2506,-1.2505,-1.2505,0,0,-1.2564,-1.2556,-1.2562,-1.2562,-1.2559,-1.2568,-1.2583,-1.2588,-1.2594,-1.2596,-1.2608,-1.262,-1.2606,-1.2609,-1.2599,-1.2611,-1.2646,-1.2594,-1.2594,-1.2604,-1.268,-1.2691,-1.2698,-1.2636,-1.2637,-1.2638,-1.268,0,-1.2607,-1.2632,-1.2619,-1.2646,-1.2656,-1.2635,-1.2648,-1.2647,-1.2641,-1.2649,-1.2643,-1.2652,-1.2633,-1.2634,-1.2645,-1.2639,-1.2661,-1.2636,-1.2647,-1.2648,-1.2648,-1.2705,-1.2716,-1.2756,-1.2685,-1.2686,-1.2686,0,-1.2661,-1.2665,-1.2692,-1.2687,-1.269,-1.2702,-1.2706,-1.2713,-1.2712,-1.2707,-1.271,-1.2696,-1.271,-1.2688,-1.2707,-1.2691,-1.2695,-1.2692,-1.2694,-1.2694,-1.2669,-1.2706,-1.2768,-1.2774,-1.2695,-1.2694,-1.2693,0,-1.2707,-1.2718,-1.2736,-1.2737,-1.2731,-1.274,-1.2738,-1.2735,-1.2739,-1.2742,-1.2744,-1.275,-1.2752,-1.2756,-1.2745,-1.273,-1.2766,-1.2742,-1.2762,-1.2762,-1.277,-1.277,-1.2833,-1.2773,-1.2773,-1.2773,-1.2773,0,-1.2757,-1.2774,-1.2757,-1.2768,-1.2787,-1.2771,-1.279,-1.2786,-1.2784,-1.2794,-1.2776,-1.2785,-1.2769,-1.2777,-1.2768,-1.2785,-1.2787,-1.2783,-1.2781,-1.2785,-1.2785,-1.2787,-1.2784,-1.2775,-1.2774,-1.2774,-1.2774,0,-1.2811,-1.28,-1.2818,-1.281,-1.2809,-1.2823,-1.2816,-1.2826,-1.2819,-1.2831,-1.2834,-1.2822,-1.2831,-1.2819,-1.2827,-1.2821,-1.2844,-1.2837,-1.2844,-1.2842,-1.2862,-1.286,-1.2929,-1.2937,-1.2872,-1.2873,-1.2873,0,-1.2843,-1.2856,-1.285,-1.2855,-1.2853,-1.2862,-1.2865,-1.2851,-1.2855,-1.2854,-1.2864,-1.2871,-1.2875,-1.289,-1.2882,-1.2888,-1.2881,-1.2905,-1.2882,-1.2885,-1.2881,-1.288,-1.2881,-1.2909,-1.291,-1.2911,-1.2911,0,-1.2902,-1.2895,-1.2901,-1.2904,-1.2909,-1.2911,-1.2912,-1.2918,-1.2902,-1.2908,-1.2916,-1.2919,-1.2927,-1.2933,-1.2937,-1.2935,-1.2921,-1.2919,-1.2923,-1.2927,-1.2931,-1.2929,-1.2857,-1.2917,-1.2917,-1.2916,-1.2916,-1.2916,-1.2945,-1.2956,-1.2952,-1.2959,-1.2958,-1.2959,-1.2968,-1.2961,-1.2968,-1.2972,-1.2963,-1.2973,-1.2971,-1.2974,-1.2974,-1.2981,-1.2971,-1.2978,-1.298,-1.2982,-1.2984,-1.293,-1.2982,-1.2982,-1.2982,-1.2982,-1.2981,0,-1.3002,-1.2999,-1.3005,-1.3007,-1.3012,-1.2998,-1.2998,-1.3003,-1.3012,-1.3012,-1.3016,-1.3025,-1.3031,-1.3024,-1.3029,-1.3037,-1.3031,-1.3039,-1.3038,-1.3038,-1.2994,-1.2989,-1.3044,-1.3044,-1.3044,-1.3044,-1.3044,-1.3044,-1.3032,-1.3049,-1.3042,-1.3057,-1.3054,-1.3063,-1.3065,-1.3066,-1.3065,-1.3075,-1.308,-1.3075,-1.3072,-1.3077,-1.3082,-1.308,-1.3082,-1.3093,-1.3088,-1.3047,-1.3041,-1.3035,-1.303,-1.3093,-1.3093,-1.3131,-1.3132,-1.3132]}]]